User: anonymous   Login
Location: Seminole
(32.7190°N, 102.6440°W)
Time: 21:22:23
(UTC-05:00)
Language:

Meteor 2-10 - Orbit

View from above orbital plane
View from above orbital plane
View from above satellite
View from above satellite

Ground track
Ground track

The orbit data is extracted from the following two-line orbital elements,

1 14452U 83109A   15216.11183681  .00000079  00000-0  26243-4 0  9998
2 14452 081.1606 045.7464 0090401 201.7961 157.9363 14.26354658651640
Epoch (UTC): 04 August 2015 02:41:02
Eccentricity: 0.0090401
inclination: 81.1606°
perigee height: 739 km
apogee height: 869 km
right ascension of ascending node: 45.7464°
argument of perigee: 201.7961°
revolutions per day: 14.26354658
mean anomaly at epoch: 157.9363°
orbit number at epoch: 65164

The dashed part of the orbit path shows where the satellite is in the earth's shadow,  

DLR